Weather History for KIML - August, 2013

Change the Weather History Date:

Saturday, August 24, 2013

  Actual Average Record
Temperature  
Mean Temperature 80 °F 72 °F  
Max Temperature 101 °F 86 °F 107 °F (1938)
Min Temperature 58 °F 58 °F 36 °F (1928)
Degree Days  
Heating Degree Days 0 0  
Month to date heating degree days 0 0  
Since 1 June heating degree days 32 36  
Cooling Degree Days 15 8  
Month to date cooling degree days 227 234  
Year to date cooling degree days 848 818  
Since 1 June cooling degree days 780 774  
Growing Degree Days 28 (Base 50)    
Moisture  
Dew Point 54 °F    
Average Humidity 55    
Maximum Humidity 93    
Minimum Humidity 17    
Precipitation  
Precipitation 0.00 in 0.07 in 1.80 in (1992)
Sea Level Pressure  
Sea Level Pressure 29.86 in    
Wind  
Wind Speed 12 mph (South)    
Max Wind Speed 23 mph    
Max Gust Speed 31 mph    
Visibility 10 miles    
Events      
T = Trace of Precipitation, MM = Missing Value Source: NWS Daily Summary

Daily Weather History Graph

Daily Weather History Graph

Search for Another Location

Airport or City:

Trip Planner

Search our weather history database for the weather conditions in past years. The results will help you decide how hot, cold, wet, or windy it might be!

Date:

Astronomy

Aug. 24, 2013 Rise Set
Actual Time 6:06 AM MDT 7:30 PM MDT
Civil Twilight 5:37 AM MDT 7:58 PM MDT
Nautical Twilight 5:03 AM MDT 8:33 PM MDT
Astronomical Twilight 4:27 AM MDT 9:09 PM MDT
Moon 9:24 PM MDT (8/24) 10:09 AM MDT (8/24)
Length of Visible Light 14h 21m
Length of Day
13h 24m
Waning Gibbous, 84% of the Moon is Illuminated
Aug 24
Waning Gibbous
Aug 28
Last Quarter
Sep 5
New
Sep 12
First Quarter
Sep 19
Full

Hourly Weather History & Observations

Time (MDT) Temp. Heat Index Dew Point Humidity Pressure Visibility Wind Dir Wind Speed Gust Speed Precip Events Conditions
12:53 AM 75.0 °F - 53.1 °F 46% 29.84 in 10.0 mi SSW 10.4 mph - N/A   Clear
1:53 AM 73.0 °F - 54.0 °F 51% 29.84 in 10.0 mi SSW 8.1 mph - N/A   Clear
2:53 AM 69.1 °F - 55.0 °F 61% 29.85 in 10.0 mi SSW 6.9 mph - N/A   Clear
3:53 AM 64.9 °F - 55.0 °F 70% 29.87 in 10.0 mi WNW 4.6 mph - N/A   Clear
4:53 AM 60.1 °F - 54.0 °F 80% 29.89 in 10.0 mi Calm Calm - N/A   Clear
5:53 AM 57.9 °F - 55.0 °F 90% 29.90 in 10.0 mi SSE 6.9 mph - N/A   Clear
6:53 AM 64.0 °F - 55.9 °F 75% 29.91 in 10.0 mi South 5.8 mph - N/A   Clear
7:53 AM 71.1 °F - 57.0 °F 61% 29.91 in 10.0 mi SSE 6.9 mph - N/A   Clear
8:53 AM 79.0 °F - 57.0 °F 47% 29.90 in 10.0 mi South 9.2 mph - N/A   Clear
9:53 AM 82.9 °F 82.6 °F 57.9 °F 42% 29.91 in 10.0 mi SSW 8.1 mph - N/A   Clear
10:53 AM 89.1 °F 87.7 °F 57.0 °F 34% 29.88 in 10.0 mi South 9.2 mph - N/A   Clear
11:53 AM 93.9 °F 91.4 °F 53.1 °F 25% 29.85 in 10.0 mi SSW 18.4 mph 25.3 mph N/A   Clear
12:53 PM 96.1 °F 93.8 °F 54.0 °F 24% 29.84 in 10.0 mi South 19.6 mph 26.5 mph N/A   Clear
1:53 PM 98.1 °F - 50.0 °F 20% 29.83 in 10.0 mi South 18.4 mph 27.6 mph N/A   Clear
2:53 PM 100.0 °F - 48.0 °F 17% 29.81 in 10.0 mi SSW 15.0 mph 26.5 mph N/A   Clear
3:53 PM 99.0 °F - 48.0 °F 18% 29.81 in 10.0 mi South 15.0 mph 25.3 mph N/A   Clear
4:53 PM 99.0 °F - 50.0 °F 19% 29.81 in 10.0 mi South 16.1 mph 31.1 mph N/A   Clear
5:53 PM 93.9 °F - 51.1 °F 23% 29.82 in 10.0 mi South 15.0 mph 26.5 mph N/A   Clear
6:53 PM 91.9 °F - 51.1 °F 25% 29.82 in 10.0 mi South 18.4 mph 25.3 mph N/A   Clear
7:53 PM 87.1 °F 85.3 °F 55.0 °F 33% 29.84 in 10.0 mi South 16.1 mph 23.0 mph N/A   Clear
8:53 PM 86.0 °F 84.7 °F 55.9 °F 36% 29.86 in 10.0 mi South 13.8 mph 20.7 mph N/A   Clear
9:53 PM 82.9 °F 82.1 °F 55.9 °F 39% 29.88 in 10.0 mi South 17.3 mph 25.3 mph N/A   Clear
10:53 PM 81.0 °F 80.8 °F 55.9 °F 42% 29.88 in 10.0 mi South 15.0 mph 23.0 mph N/A   Clear
11:53 PM 80.1 °F 80.4 °F 57.0 °F 45% 29.89 in 10.0 mi South 12.7 mph 20.7 mph N/A   Clear